Volver al catálogo

COSMOS 1275 DEB

ActivoPO
NORAD 12670·DEBRIS·🇷🇺 Russia

Lanzado Jun 4, 1981 desde Plesetsk Cosmodrome

Loading…

Próximos Pases (próximas 24 horas)

TLE

ActualizadoSource: Space-Track

Época: Sep 14, 2026, 15:52 UTC

1 12670U 81053AA  26257.66120138  .00000397  00000-0  35581-3 0  9996
2 12670  82.9409 137.5353 0054275 171.7993 217.2786 13.81207259266125

Sigue COSMOS 1275 DEB en tiempo real con AllMySat

Download on the App Store